YZ-1 R/B, 44795

Orbit data source: Space-Track

YZ-1 R/B, 44795 is space debris originally from a launch on Sat, 23 Nov 2019 UTC launched from the Xichang Space Center, China (XSC). Debris objects in space refer to the collection of defunct objects orbiting the Earth. Examples of debris include non-operational satellites, rocket bodies, and fragments generated from explosions, collisions, or faulty payload assembly.

Loading next visibility...
Identifier
44795, 2019-078C
Orbit
Active
Country
Flag of CNCN / PRC
Related business
Manufacturer
CALT
Mission
Spacecraft
Bus & Motor
YZ-1, Unknown motor
Mass
~2,075 kg wet, ~2,075 kg dry
Launch date (UTC)
2019-11-23 (7 years ago)
Launch vehicle
Unknown
Launch site
Xichang Space Center, China (XSC)
Object type
Payload
Rocket body
Debris
Shape & HBR
Double Cone, 2.0 m
Radar Cross Section
5.890 m², Large (>1 m²)

Expand to show TLE details & history
Last TLE update: 3 days ago

TLE from 3 days ago
0 YZ-1 R/B
1 44795U 19078C   26170.58212199 -.00000084  00000-0  00000-0 0  9990
2 44795  54.2131 307.8814 0075302  52.3910 308.2776  1.78050120 42750
Epoch: 2026-06-19T13:58Z
TLE epoch observation values (Epoch: 2026-06-19T13:58:15.339Z)
Latitude
0.00005°
Longitude
-169.51084°
Altitude
22,243.801 km
Speed
3.741 km/s
True Right ascension
20h 31m 26s
True Declination
0° 00' 00"
Sunlit
Object was in daylight at epoch
Visualization orbit readout
Latitude
Unknown
Longitude
Unknown
Altitude
Unknown
Speed
Unknown
Apparent Right ascension
Unknown
Apparent Declination
Unknown
Sunlit
N/A
Visualization observer readout
Local Sidereal Time
21:35:34
Azimuth
Unknown
Elevation
Unknown
Doppler factor
Unknown
Orbital elements
Apogee altitude
22,593.006 km
Perigee altitude
22,159.95 km
Semi-major axis
28,754.615 km
Eccentricity
0.00753
Inclination
54.2131°
RAAN
307.8814°
Arg. of periapsis
52.391°
True anomaly
307.59625°
Mean anomaly
308.2776°
Eccentric anomaly
307.93732°
Mean motion
0.44512 °/min
Orbital period
808.76 mins
BSTAR
0
Loading maneuver chart data...
Computing Atmospheric mass density...
Loading historical data...
Loading historical data...
Loading historical data...
Loading historical data...
Loading historical data...
Loading historical data...
Loading historical data...
Other satellites on launch #78 in the year 2019 (2019-11-23 UTC)

Documentation

Showing up to 5 results
|